{"data":{"norad_id":65582,"epoch":"2026-05-25T02:15:55.048032Z","epoch_age_seconds":66331,"freshness":"FRESH","line1":"1 65582U 25203T   26145.09438713  .00000215  00000+0  18310-3 0  9994","line2":"2 65582  81.3064  32.1560 0007054 253.1764 106.8619 13.83941651 36136","mean_motion":13.83941651,"eccentricity":0.0007054,"inclination_deg":81.3064,"raan_deg":32.156,"arg_perigee_deg":253.1764,"mean_anomaly_deg":106.8619,"bstar":0.0001831,"rev_number":3613,"period_min":104.05062951603,"perigee_km":944.77016630624,"apogee_km":955.10861647922,"semimajor_km":7328.0763913927,"source":"CELESTRAK","updated_at":"2026-05-25T13:38:25.172014Z"}}